Location: Cluj-Napoca
(46.7712°N, 23.6236°E)
Time: 10:15:55
(UTC+03:00)

ISS - Pass Details

Date: 09 May 2021
Orbit: 417 x 422 km, 51.6° (Epoch: 15 May)

Event Time Altitude Azimuth Distance (km) Brightness Sun altitude
Exits shadow 03:03:26 38° 322° (NW) 662 -2.6 -21.9°
Maximum altitude 03:03:57 41° 348° (NNW) 625 -2.6 -21.9°
Drops below altitude 10° 03:07:11 10° 60° (ENE) 1,507 -0.2 -21.6°
Sets 03:09:22 0° 68° (ENE) 2,373 0.8 -21.5°
